Misión y Visión

La misión es proporcionar información fiable a la navegación aérea, contribuyendo a la seguridad, regularidad y eficiencia de la Navegación Aérea Internacional

La visión es contribuir sustancialmente al desarrollo de conocimientos y a la utilización de la meteorología aeronáutica a nivel nacional e internacional, mediante la innovación y la coparticipación con sectores sociales y productivos de la sociedad.

 
  Inicio
  Metar
  Taf
  Wintemp
  SIGMET
  Avisos
  Pronósticos
  Carpeta Meteorologica
  Imágenes Satelitales
  Climatología Aeronáutica
   
  ¿Quienes Somos?
  Contacto
  Eventos
  Publicaciones
  Politica de la Calidad
Taf

DIRECCIONES PARA INFORMES NACIONALES E INTERNACIONALES
(Metar /Speci - TAF)

http://adds.aviationweather.gov/tafs/index.php

http://www.ogimet.com/metars.phtml

PRONÓSTICOS DE AERÓDROMO

Cuando sea necesario, el encabezamiento abreviado puede incluir un cuarto grupo consistente en tres letras para identificar los boletines demorados (RRA), corregidos (CCA) o enmendados (AAA). Los boletines adicionales demorados, corregidos o enmendados deben identificarse con las letras RRB, RRC, etc.; CCB, CCC,etc.;AAB, AAC,etc.

 

DÍA 22/09/2014

 

TAF

MPTO

TAF MPTO 221100Z 2212/2312 00000KT 9999 FEW018
PROB30 TEMPO 2217/2221 18006KT 5000 -TSRA SCT015CB BKN090
BECMG 2221/2301 32004KT SCT018 SCT090=

 

TAF

MPPA

TAF MPPA 221100Z 2212/2312 35004KT 9999 FEW018 SCT090
PROB30 TEMPO 2217/2221 21007KT 6000 -TSRA SCT015CB BKN090
BECMG 2221/2301 35006KT SCT018 SCT090=

TAF

MPMG

TAF MPMG 220500Z 2206/2218 00000KT 9999 FEW018 SCT090
PROB30 TEMPO 2216/2218 18004KT 8000 -TSRA SCT015CB BKN090=

TAF MPDA 

 

TAF MPDA 220500Z 2206/2218 00000KT 9999 FEW018 
BECMG 2214/2218 23005KT SCT018= 

 
 













  Noticias AAC
  Directorio
  Contáctenos
  Historia
  Quejas y Sugerencias
  Etica y Transparencia

  Gestión SSP/SMS
  Seguridad Aérea
  Navegación Aérea
  Transporte Aéreo

  Tramites
  Áeronaves de Alquiler

  Meteorología
  I.S.F.P.A
  Notam
  Peligro Aviario
  AVSEC
  UPIA
  Permisos
 




DECLARACIÓN DE PRIVACIDAD